EW4538 Weather Reports


time (UTC)temp
F
wind
direction
speed
knots
gust
knots
rain 1hr
in
rain 24hr
in
rain mn
in
humidity
%
barometer
mb
20260901101304 77 163 2.6 7.8 0.00 0.00 0.00 76 1015.4
20260901094804 77 174 1.7 5.2 0.00 0.00 0.00 75 1015.5
20260901094305 77 174 2.6 5.2 0.00 0.00 0.00 75 1015.5
20260901093805 77 168 1.7 4.3 0.00 0.00 0.00 75 1015.5
20260901093304 77 168 0.9 4.3 0.00 0.00 0.00 75 1015.5
20260901091804 78 168 0.9 1.7 0.00 0.00 0.00 74 1015.6
20260901091305 78 168 0.0 1.7 0.00 0.00 0.00 74 1015.6
20260901090304 78 168 1.7 7.0 0.00 0.00 0.00 74 1015.7
20260901084804 79 169 2.6 5.2 0.00 0.00 0.00 73 1015.5
20260901084305 79 167 3.5 5.2 0.00 0.00 0.00 73 1015.4
20260901083805 79 172 2.6 7.0 0.00 0.00 0.00 73 1015.4
20260901083305 79 164 2.6 7.8 0.00 0.00 0.00 72 1015.4
20260901081804 79 152 4.3 10.4 0.00 0.00 0.00 71 1015.3
20260901081305 79 154 3.5 8.7 0.00 0.00 0.00 70 1015.3
20260901080805 80 157 5.2 10.4 0.00 0.00 0.00 70 1015.3
20260901080305 80 155 7.0 10.4 0.00 0.00 0.00 70 1015.2
20260901074805 80 177 3.5 7.8 0.00 0.00 0.00 70 1015.3
20260901074305 80 163 4.3 7.8 0.00 0.00 0.00 69 1015.4
20260901073304 80 161 4.3 7.8 0.00 0.00 0.00 69 1015.5
20260901071305 81 155 5.2 10.4 0.00 0.00 0.00 68 1015.6
20260901070805 81 176 2.6 7.8 0.00 0.00 0.00 68 1015.5
20260901070304 81 157 4.3 10.4 0.00 0.00 0.00 67 1015.5
20260901064804 82 151 6.1 10.4 0.00 0.00 0.00 66 1015.4
20260901064304 82 153 5.2 11.3 0.00 0.00 0.00 66 1015.4
20260901063805 82 150 6.1 11.3 0.00 0.00 0.00 66 1015.4
20260901063305 82 151 5.2 11.3 0.00 0.00 0.00 65 1015.2
20260901061304 83 168 6.1 10.4 0.00 0.00 0.00 64 1015.0
20260901060805 83 167 7.8 11.3 0.00 0.00 0.00 64 1015.0
20260901054805 83 160 9.6 13.0 0.00 0.00 0.00 63 1014.9
20260901054304 84 160 7.8 13.9 0.00 0.00 0.00 63 1014.9
20260901053805 84 158 7.8 13.9 0.00 0.00 0.00 63 1014.8
20260901053305 84 156 9.6 18.2 0.00 0.00 0.00 63 1014.8
20260901051805 84 157 12.2 17.4 0.00 0.00 0.00 62 1014.7
20260901051304 84 155 8.7 12.2 0.00 0.00 0.00 62 1014.7
20260901050305 85 158 8.7 14.8 0.00 0.00 0.00 61 1014.6
20260901044805 85 161 8.7 15.6 0.00 0.00 0.00 59 1014.4
20260901044305 85 157 13.0 20.0 0.00 0.00 0.00 59 1014.4
20260901043805 85 164 8.7 14.8 0.00 0.00 0.00 59 1014.4
20260901043304 85 162 11.3 17.4 0.00 0.00 0.00 58 1014.5
20260901041805 86 164 8.7 18.2 0.00 0.00 0.00 56 1014.5
20260901041305 86 160 11.3 18.2 0.00 0.00 0.00 56 1014.5
20260901040805 86 160 8.7 13.9 0.00 0.00 0.00 54 1014.5
20260901040305 86 155 11.3 20.0 0.00 0.00 0.00 53 1014.4
20260901034805 87 152 7.8 12.2 0.00 0.00 0.00 51 1014.5
20260901034305 87 162 10.4 17.4 0.00 0.00 0.00 50 1014.4
20260901033305 87 156 13.0 17.4 0.00 0.00 0.00 48 1014.4
20260901031305 88 159 11.3 18.2 0.00 0.00 0.00 43 1014.1
20260901030805 88 144 8.7 15.6 0.00 0.00 0.00 43 1014.0
20260901030304 88 159 5.2 11.3 0.00 0.00 0.00 42 1013.9
20260901024805 90 129 5.2 10.4 0.00 0.00 0.00 40 1013.7
20260901024305 90 137 6.1 10.4 0.00 0.00 0.00 40 1013.6
20260901023804 90 113 7.0 12.2 0.00 0.00 0.00 39 1013.6
20260901023305 90 131 6.1 12.2 0.00 0.00 0.00 39 1013.6
20260901021804 90 131 4.3 10.4 0.00 0.00 0.00 39 1013.3
20260901021304 90 125 5.2 8.7 0.00 0.00 0.00 38 1013.3
20260901020804 90 108 4.3 8.7 0.00 0.00 0.00 39 1013.2
20260901014804 91 123 4.3 7.8 0.00 0.00 0.00 37 1012.9
20260901014304 91 120 4.3 7.8 0.00 0.00 0.00 37 1012.9
20260901013304 91 127 4.3 8.7 0.00 0.00 0.00 36 1012.7
20260901011805 91 125 4.3 7.0 0.00 0.00 0.00 36 1012.7
20260901011305 92 128 2.6 5.2 0.00 0.00 0.00 35 1012.7
20260901010804 92 113 3.5 8.7 0.00 0.00 0.00 35 1012.6
20260901010304 92 115 4.3 10.4 0.00 0.00 0.00 35 1012.6
20260901004804 93 106 4.3 10.4 0.00 0.00 0.00 35 1012.6
20260901003804 93 115 6.1 10.4 0.00 0.00 0.00 35 1012.7
20260901003304 93 115 7.8 11.3 0.00 0.00 0.00 36 1012.6
20260901001804 94 162 4.3 12.2 0.00 0.00 0.00 37 1012.4
20260901001304 94 155 6.1 11.3 0.00 0.00 0.00 36 1012.3
20260901000805 94 156 5.2 10.4 0.00 0.00 0.00 36 1012.3
20260901000304 94 156 7.0 13.0 0.00 0.00 0.00 36 1012.3
20260831234804 94 140 5.2 8.7 0.00 0.00 0.00 35 1012.4
20260831234305 94 157 3.5 7.8 0.00 0.00 0.00 35 1012.4
20260831233805 94 142 6.1 10.4 0.00 0.00 0.00 35 1012.4
20260831231804 95 157 7.8 13.9 0.00 0.00 0.00 35 1012.3
20260831231304 95 167 7.0 13.0 0.00 0.00 0.00 35 1012.3
20260831230805 95 148 5.2 11.3 0.00 0.00 0.00 35 1012.4
20260831230305 95 152 5.2 12.2 0.00 0.00 0.00 34 1012.4
20260831224804 96 145 4.3 13.0 0.00 0.00 0.00 34 1012.4
20260831224304 96 105 7.8 13.0 0.00 0.00 0.00 33 1012.5
20260831223304 97 133 7.8 13.0 0.00 0.00 0.00 33 1012.6
20260831221805 96 109 7.8 12.2 0.00 0.00 0.00 34 1012.8
20260831221305 96 157 10.4 17.4 0.00 0.00 0.00 34 1012.6
20260831220304 96 167 5.2 13.0 0.00 0.00 0.00 34 1012.7
20260831214804 96 158 7.0 13.0 0.00 0.00 0.00 35 1012.9
20260831213304 97 171 8.7 13.9 0.00 0.00 0.00 33 1013.0
20260831211804 96 158 8.7 14.8 0.00 0.00 0.00 34 1013.3
20260831210305 96 125 7.8 17.4 0.00 0.00 0.00 36 1013.5
20260831204804 96 161 6.1 10.4 0.00 0.00 0.00 37 1013.7
20260831204305 96 115 7.0 13.9 0.00 0.00 0.00 38 1013.8
20260831203804 95 166 7.8 14.8 0.00 0.00 0.00 38 1014.0
20260831203305 95 152 5.2 15.6 0.00 0.00 0.00 37 1014.0
20260831201804 95 93 7.8 13.0 0.00 0.00 0.00 39 1014.4
20260831201304 95 132 5.2 14.8 0.00 0.00 0.00 39 1014.5
20260831200304 95 163 8.7 15.6 0.00 0.00 0.00 39 1014.6
20260831194805 96 165 8.7 13.9 0.00 0.00 0.00 39 1014.7
20260831194304 95 202 4.3 12.2 0.00 0.00 0.00 40 1014.8
20260831193804 94 180 6.1 14.8 0.00 0.00 0.00 41 1014.9
20260831193304 95 189 5.2 20.0 0.00 0.00 0.00 40 1014.9
20260831191804 94 160 5.2 20.0 0.00 0.00 0.00 41 1015.2
20260831191304 94 160 7.8 15.6 0.00 0.00 0.00 43 1015.3
20260831190805 94 159 8.7 17.4 0.00 0.00 0.00 42 1015.3
20260831190304 93 162 5.2 17.4 0.00 0.00 0.00 42 1015.4
20260831184805 93 130 6.1 10.4 0.00 0.00 0.00 42 1015.5
20260831184305 93 134 8.7 15.6 0.00 0.00 0.00 44 1015.6
20260831183305 93 168 8.7 17.4 0.00 0.00 0.00 43 1015.7
20260831181304 93 156 8.7 17.4 0.00 0.00 0.00 46 1015.7
20260831180804 92 201 6.1 13.0 0.00 0.00 0.00 48 1015.8
20260831180304 92 153 4.3 20.0 0.00 0.00 0.00 49 1016.0
20260831174804 91 142 11.3 13.9 0.00 0.00 0.00 48 1016.1
20260831174305 91 152 13.9 18.2 0.00 0.00 0.00 49 1016.1
20260831173804 91 158 8.7 15.6 0.00 0.00 0.00 50 1016.2
20260831173304 91 133 8.7 14.8 0.00 0.00 0.00 50 1016.3
20260831171805 90 122 8.7 13.0 0.00 0.00 0.00 54 1016.4
20260831171304 90 114 12.2 14.8 0.00 0.00 0.00 52 1016.5
20260831170804 90 133 7.0 13.9 0.00 0.00 0.00 53 1016.5
20260831170305 90 164 6.1 18.2 0.00 0.00 0.00 52 1016.5
20260831164804 89 161 8.7 13.0 0.00 0.00 0.00 54 1016.5
20260831163804 88 144 7.0 13.0 0.00 0.00 0.00 58 1016.7
20260831161804 87 176 4.3 10.4 0.00 0.00 0.00 60 1016.6
20260831161304 86 210 5.2 11.3 0.00 0.00 0.00 61 1016.6
20260831160805 86 161 5.2 8.7 0.00 0.00 0.00 61 1016.7
20260831160305 86 174 5.2 14.8 0.00 0.00 0.00 62 1016.6
20260831154805 85 195 4.3 10.4 0.00 0.00 0.00 64 1016.6
20260831154305 85 157 5.2 11.3 0.00 0.00 0.00 65 1016.6
20260831153804 84 196 5.2 8.7 0.00 0.00 0.00 66 1016.5
20260831153305 84 173 5.2 10.4 0.00 0.00 0.00 67 1016.5
20260831151805 85 189 5.2 10.4 0.00 0.00 0.00 67 1016.4
20260831151305 84 170 4.3 10.4 0.00 0.00 0.00 68 1016.4
20260831150805 84 187 4.3 10.4 0.00 0.00 0.00 69 1016.4
20260831150305 83 160 7.8 15.6 0.00 0.00 0.00 68 1016.3
20260831144804 84 153 6.1 10.4 0.00 0.00 0.00 70 1016.2
20260831144304 83 187 5.2 13.9 0.00 0.00 0.00 71 1016.2
20260831141804 82 176 6.1 11.3 0.00 0.00 0.00 73 1016.1
20260831141305 82 175 5.2 8.7 0.00 0.00 0.00 74 1016.0
20260831140804 82 172 3.5 8.7 0.00 0.00 0.00 74 1015.9
20260831140304 81 192 3.5 11.3 0.00 0.00 0.00 75 1015.9
20260831134804 80 194 1.7 7.0 0.00 0.00 0.00 76 1015.9
20260831133805 80 194 1.7 2.6 0.00 0.00 0.00 77 1015.8
20260831133304 79 191 2.6 8.7 0.00 0.00 0.00 78 1015.9
20260831131804 78 153 2.6 5.2 0.00 0.00 0.00 78 1015.7
20260831131304 78 163 2.6 5.2 0.00 0.00 0.00 78 1015.7
20260831130804 77 149 1.7 7.8 0.00 0.00 0.00 78 1015.7
20260831130305 77 143 1.7 5.2 0.00 0.00 0.00 79 1015.7
20260831123805 76 159 1.7 4.3 0.00 0.00 0.00 79 1015.5
20260831123304 76 159 2.6 5.2 0.00 0.00 0.00 79 1015.5
20260831121805 76 160 2.6 7.0 0.00 0.00 0.00 79 1015.3
20260831121304 76 158 2.6 7.0 0.00 0.00 0.00 79 1015.3
20260831120804 76 152 3.5 7.0 0.00 0.00 0.00 79 1015.3
20260831120304 76 160 3.5 7.0 0.00 0.00 0.00 79 1015.3
20260831114805 76 155 2.6 4.3 0.00 0.00 0.00 79 1015.2
20260831114304 76 147 2.6 4.3 0.00 0.00 0.00 79 1015.2
20260831113805 76 151 2.6 5.2 0.00 0.00 0.00 79 1015.3
20260831113305 76 155 1.7 5.2 0.00 0.00 0.00 79 1015.3
20260831111804 76 160 1.7 5.2 0.00 0.00 0.00 78 1015.2
20260831111305 76 158 2.6 5.2 0.00 0.00 0.00 78 1015.2
20260831110805 76 158 3.5 7.0 0.00 0.00 0.00 78 1015.1
20260831110305 76 160 4.3 7.0 0.00 0.00 0.00 78 1015.1
20260831104804 77 157 2.6 5.2 0.00 0.00 0.00 78 1015.2
20260831104305 77 163 3.5 7.8 0.00 0.00 0.00 78 1015.2
20260831103804 77 158 2.6 7.0 0.00 0.00 0.00 78 1015.1
20260831101804 77 181 1.7 5.2 0.00 0.00 0.00 78 1015.2